Find STARLINK-37784

NORAD ID: 799501008 Int'l Des: 2026-143J Constellation: starlink operational

Aktuelle Ansicht

3D-Globus wird geladen...

About STARLINK-37784

STARLINK-37784 (NORAD 799501008) is a starlink constellation satellite launched Jun 15, 2026

Über STARLINK-37784

Beschreibung wird geladen...

Nächste Überflüge

Passes for default location (London). Set your location on the main map for personalized predictions.

Höhenverlauf

Loading altitude history...

Zweizeiliger Elementsatz

1 99999C 2026143J 26173.14562500 .00504830 00000-0 770970-4 0 1733
2 99999 97.2822 216.0033 0011157 275.0539 298.7825 16.04033238 10
Epoch: 22. Juni 2026 • Age: 4 hours